Wind_Speed
19 22 25 26 25 26 26 27 29 30 31 33 34 34 31 30 28 26 24 25 25 24 24 24 24 23 22 23 24 25 25 25 25 24 25 27 29 31 31 31 31 33 35 36 37 38 38 38 38 38 40 42 44 45 45 46 46 45 45 45 44 42 41 40 36 31 32 33 32 34 36 37 38 39 39 39 40 41 42 43 44 44 45 45 45
21 24 28 28 28 28 28 29 31 33 34 35 34 33 32 33 32 29 27 26 25 24 24 24 25 24 24 24 25 25 25 25 25 25 26 28 30 31 31 31 32 33 35 37 38 38 37 36 37 39 42 43 44 44 44 44 44 44 44 44 43 42 42 42 39 35 33 34 35 36 38 39 38 39 40 39 40 40 42 43 44 45 46 46 46
24 27 31 31 30 30 31 32 33 35 37 38 36 35 35 36 36 34 31 28 26 25 23 23 24 25 26 26 26 26 26 25 25 26 27 29 30 31 31 31 33 35 37 39 39 37 36 36 39 41 43 43 43 43 43 43 43 43 43 44 43 43 43 42 41 39 36 36 37 38 39 39 39 39 39 38 38 39 41 43 44 45 46 47 47
26 30 33 33 32 32 34 36 37 37 39 41 39 38 37 38 40 41 35 30 26 25 22 22 24 26 28 28 28 27 26 26 26 27 28 29 30 31 32 33 34 36 39 40 39 37 36 39 42 43 43 43 42 42 42 42 42 42 43 43 43 43 43 43 42 41 39 37 38 39 38 38 37 37 38 36 35 36 39 40 42 44 46 47 47
29 32 35 35 34 34 36 38 39 39 41 41 40 39 40 42 46 44 35 29 26 23 21 22 25 27 29 30 30 29 27 27 27 29 30 30 31 32 32 33 35 37 40 41 39 38 39 42 43 43 43 42 42 42 42 42 42 42 42 43 43 43 43 43 43 42 41 40 39 38 37 37 35 35 37 36 33 34 37 38 40 43 45 47 47
30 33 34 34 34 35 37 40 41 41 42 41 41 42 44 46 45 37 31 29 27 22 20 22 25 27 29 30 31 31 30 29 29 30 31 32 32 32 33 34 36 38 40 41 40 40 42 43 44 44 43 43 42 42 43 43 42 42 42 43 43 43 43 43 43 43 43 42 41 39 36 36 35 34 36 37 35 34 35 36 38 41 44 46 48
31 33 33 33 34 35 39 42 42 42 42 41 41 43 46 47 41 34 33 34 30 24 21 21 24 27 28 29 31 32 32 31 31 32 33 34 34 34 36 38 39 40 41 42 43 43 44 44 44 44 44 44 43 43 44 44 44 43 43 43 43 43 43 43 43 44 44 43 42 40 36 35 35 35 36 37 37 37 37 37 38 40 43 45 47
32 33 34 35 34 35 40 42 40 41 41 39 41 44 45 47 44 40 41 39 31 25 21 22 24 27 28 29 31 32 33 32 32 33 34 35 35 36 38 40 40 41 42 43 45 45 44 44 45 45 45 44 44 44 44 45 45 44 44 43 42 42 42 42 43 44 44 44 43 41 37 35 35 36 37 37 38 38 38 38 38 40 42 43 45
31 33 34 34 34 36 39 40 38 40 40 40 44 44 43 44 44 43 42 37 32 28 27 27 28 29 30 30 31 33 34 33 32 33 34 34 35 37 39 40 41 42 43 45 45 46 45 45 45 44 45 44 44 44 45 46 46 45 44 43 42 41 42 42 43 43 44 44 43 40 37 35 35 35 36 36 36 37 38 39 39 40 41 42 43
30 31 32 32 34 36 38 38 38 39 41 43 44 43 40 40 41 40 39 36 33 33 32 30 30 31 32 32 32 34 34 33 32 32 33 33 34 37 39 40 42 43 44 45 46 46 46 46 45 45 45 44 44 45 46 47 46 45 43 42 41 41 42 42 43 44 44 43 42 40 38 36 35 35 35 35 36 36 39 41 41 41 42 43 43
29 29 30 31 33 35 37 38 39 41 43 44 44 41 35 31 33 36 36 35 33 32 30 29 31 33 34 33 34 35 34 33 32 32 33 34 35 37 39 41 43 43 44 45 46 46 46 46 46 45 45 45 45 46 47 47 46 45 43 42 42 41 42 42 43 43 42 41 40 39 38 36 35 34 35 35 37 38 40 42 43 43 44 44 43
28 29 30 32 34 36 38 40 40 43 44 46 49 47 35 26 28 33 34 33 33 32 30 30 33 33 34 35 35 35 34 33 33 34 35 35 36 37 40 42 43 42 43 44 45 45 45 45 46 46 46 46 46 47 47 46 45 44 43 43 42 42 42 42 42 41 40 38 38 38 38 36 34 34 35 36 38 39 41 43 45 46 46 46 44
28 30 31 33 36 37 40 41 41 43 44 44 46 42 32 26 30 32 32 33 34 33 32 32 32 32 33 35 35 35 34 34 35 36 37 37 37 39 42 43 43 43 44 45 46 45 46 46 46 46 46 46 47 47 46 44 43 42 42 42 42 43 42 42 41 39 36 35 36 37 37 36 35 35 35 37 38 39 41 43 46 47 47 46 43
29 31 32 35 37 39 42 44 43 45 45 42 40 34 28 27 30 30 31 32 32 32 32 31 32 32 34 36 37 36 35 35 37 38 38 39 40 41 44 45 44 44 45 46 46 46 46 46 46 47 46 46 46 45 43 42 41 40 40 41 42 43 42 41 39 36 34 34 35 36 36 36 36 36 36 37 38 39 42 45 47 49 47 43 40
31 32 34 36 39 41 45 46 47 48 45 41 40 35 31 31 31 29 30 30 32 34 34 33 33 33 34 37 37 37 37 37 38 38 39 40 41 43 45 44 43 44 45 46 46 46 46 46 46 46 45 45 45 43 41 40 39 39 40 41 42 42 41 38 36 33 33 34 34 35 35 35 36 36 36 36 37 41 44 47 49 49 44 38 35
33 33 35 37 39 41 45 47 49 50 45 42 42 38 35 36 34 30 29 31 34 36 37 36 35 32 33 36 37 37 37 37 37 38 38 39 41 43 44 43 43 44 45 46 46 46 46 46 45 45 44 43 43 42 41 40 39 40 40 41 42 41 38 36 33 32 33 34 34 34 33 34 35 35 35 36 38 42 46 48 50 48 43 36 31
34 35 37 38 39 41 45 48 50 51 47 43 41 36 35 38 36 30 30 32 34 36 38 38 36 33 33 35 36 37 37 37 37 37 37 39 41 42 42 42 43 45 45 46 46 46 46 46 44 44 44 43 42 41 41 40 40 41 41 41 41 39 36 34 32 32 33 33 34 33 33 34 34 34 35 37 39 44 48 50 50 49 45 38 30
38 38 39 40 40 42 44 46 50 52 47 41 38 35 34 36 34 31 32 34 34 35 37 38 37 34 33 35 37 38 37 35 35 35 36 39 41 41 41 42 44 44 45 46 47 47 46 45 44 44 44 42 41 40 41 41 41 41 41 41 40 37 34 32 31 32 32 33 33 33 33 33 33 33 35 38 41 45 50 52 52 50 46 39 31
43 42 41 41 41 42 43 44 49 52 46 38 38 38 35 32 31 32 34 35 33 34 36 37 37 36 35 37 40 40 37 33 32 35 37 39 40 42 43 43 44 45 46 47 47 46 46 45 45 45 43 41 39 40 40 41 41 41 40 40 38 35 32 30 30 31 32 32 33 34 33 33 32 33 35 38 41 45 49 51 51 50 46 39 31
45 42 39 39 39 41 42 43 47 51 48 43 42 42 37 33 34 35 35 34 34 35 36 38 39 40 40 41 43 43 39 34 34 38 40 40 40 42 43 43 44 46 46 46 46 45 45 47 47 45 42 39 38 38 39 40 40 40 40 39 37 34 31 29 30 31 32 31 31 32 32 31 31 33 35 38 41 43 46 48 48 47 45 38 30
45 41 38 39 40 40 40 41 45 49 49 44 41 38 35 35 37 37 35 33 34 36 40 43 43 42 42 43 42 41 37 34 34 39 41 41 41 42 42 43 44 45 45 45 45 46 47 49 47 43 40 37 37 37 38 39 39 39 39 38 35 32 30 29 30 31 32 32 30 31 31 29 29 32 34 37 40 42 45 47 45 44 43 39 31
43 40 38 39 40 41 41 40 42 45 47 45 42 41 40 40 39 37 36 36 38 40 43 45 43 42 42 41 39 38 38 35 37 41 44 43 42 41 42 43 44 45 45 45 47 48 49 48 45 41 38 36 36 36 37 38 38 39 39 37 34 31 30 29 30 32 32 31 30 30 30 28 28 31 33 36 39 41 43 45 44 40 39 37 34
43 40 39 39 40 40 40 40 40 44 47 49 47 46 44 43 39 37 38 41 43 43 43 44 43 43 43 42 41 43 41 38 40 46 47 44 42 42 43 44 45 46 47 47 49 50 49 46 43 39 37 36 36 36 37 37 38 38 38 36 33 30 30 30 30 31 31 31 30 29 29 28 28 30 32 35 37 39 41 43 41 38 35 34 33
42 41 40 40 40 40 40 39 40 43 46 49 49 46 43 40 38 38 41 44 43 41 41 42 42 42 43 42 42 43 41 39 43 48 46 44 44 45 46 47 48 48 49 50 51 50 47 44 41 38 37 36 36 36 36 37 37 38 37 34 32 30 30 29 30 31 31 30 29 29 28 28 29 30 32 34 36 38 39 41 39 36 33 33 29
42 40 41 41 41 41 40 39 41 42 45 48 48 45 42 40 40 42 45 44 44 43 41 40 41 43 43 40 38 40 40 42 46 48 46 46 46 46 47 49 49 50 51 51 50 48 45 42 40 38 37 36 36 36 36 37 37 37 35 33 31 30 29 29 29 30 30 30 29 28 28 28 29 31 32 34 36 37 38 39 38 34 32 32 26
41 40 41 41 41 41 40 39 40 42 43 46 47 45 42 40 41 43 43 42 44 44 41 40 42 42 39 35 36 40 43 47 50 50 48 47 46 47 49 49 49 50 50 49 48 46 43 41 40 38 37 36 36 36 36 37 36 35 34 32 31 30 29 28 29 29 29 29 28 27 27 28 29 31 33 34 36 37 38 39 37 32 29 28 23
41 41 41 41 41 40 39 39 40 40 42 46 47 46 44 42 42 42 40 39 42 43 43 44 44 40 34 37 43 46 48 50 50 49 47 47 47 48 48 48 48 48 47 46 45 44 42 40 39 38 38 37 36 36 36 36 36 34 32 31 30 30 29 28 28 28 28 28 27 26 27 28 29 30 32 34 35 36 38 39 37 31 26 26 23
40 39 39 40 40 40 40 39 39 41 43 45 46 47 47 46 45 43 41 41 42 43 45 45 42 38 40 46 49 49 49 48 46 45 46 47 47 47 46 46 46 46 45 44 43 41 41 40 39 38 37 37 36 36 36 36 35 33 31 30 29 29 28 27 27 27 27 27 26 26 26 27 29 30 31 32 34 35 37 39 38 32 25 24 24
39 39 40 40 41 41 41 40 40 42 43 43 45 47 48 47 46 45 45 46 45 42 42 42 40 41 48 51 49 47 46 44 44 46 46 46 46 45 45 45 45 44 43 42 41 40 40 40 38 37 37 36 36 36 36 35 34 32 30 29 29 29 28 27 26 26 26 26 26 25 25 26 28 29 30 31 33 35 36 37 37 33 25 21 22
41 42 41 41 42 42 42 42 43 43 43 43 45 46 44 43 44 43 43 45 44 39 38 41 44 49 53 51 47 44 44 45 47 47 46 45 44 43 44 44 44 42 41 40 40 40 40 39 38 37 36 36 36 35 35 34 33 31 30 29 28 28 27 26 26 26 26 25 25 25 25 25 26 27 28 30 32 34 35 36 36 33 27 21 18
43 43 42 42 43 43 43 44 44 44 43 44 44 44 41 39 39 37 35 37 40 41 42 47 52 54 53 48 45 45 47 49 48 46 45 44 43 43 44 44 43 41 40 40 40 39 38 38 37 36 35 35 35 34 34 33 32 31 30 29 28 27 26 26 26 26 26 25 25 25 25 25 26 26 27 28 30 32 34 34 35 34 31 25 16
43 43 43 43 43 44 45 45 45 44 44 44 44 45 44 43 43 42 40 41 44 47 49 52 54 52 49 46 46 48 48 47 46 46 45 44 43 45 46 44 41 40 40 40 39 38 37 36 35 35 35 34 34 34 33 32 32 31 31 30 28 27 26 26 26 27 27 27 26 26 26 26 26 26 27 27 28 30 31 32 33 33 32 27 19
44 46 46 45 45 45 45 45 45 45 46 45 45 45 46 46 46 47 47 46 47 48 48 48 47 46 46 46 47 47 46 46 47 47 46 44 44 44 41 39 39 39 39 39 38 36 35 34 34 34 34 33 33 33 32 31 31 31 30 29 28 27 26 26 26 26 26 27 27 27 26 26 26 26 26 27 27 28 29 30 31 31 31 29 22
43 44 44 44 44 44 45 45 46 46 46 46 45 44 45 46 47 48 47 45 44 44 44 43 43 44 45 46 46 46 47 48 48 47 46 45 43 40 38 39 39 38 37 36 36 34 34 33 33 33 33 33 33 32 31 30 30 30 29 28 27 26 26 26 26 25 25 26 26 26 26 26 25 25 26 26 27 27 27 28 29 29 29 28 22
41 41 41 41 42 43 44 45 45 45 45 45 44 44 46 47 47 45 42 41 41 40 40 41 43 45 47 48 48 48 48 48 48 47 47 46 44 43 42 40 38 37 36 36 35 33 32 32 32 32 32 31 31 30 30 29 29 29 28 26 25 25 25 25 25 24 24 24 24 24 25 24 24 24 24 24 25 25 26 27 28 27 27 27 22
42 42 42 41 41 42 43 44 44 44 44 43 44 45 45 44 42 40 39 39 38 38 40 42 46 50 51 50 49 49 50 49 49 48 47 46 45 44 41 39 37 37 37 36 34 32 31 31 31 31 30 30 30 29 29 29 29 28 26 25 24 25 24 24 24 23 22 22 22 22 23 23 22 23 23 22 22 23 23 24 26 26 26 26 23
42 41 40 40 41 42 43 44 44 44 43 42 42 43 42 40 39 38 38 38 38 40 44 48 50 52 51 49 49 50 51 51 51 49 47 44 43 41 39 38 38 38 38 36 33 31 30 30 30 30 29 29 29 29 29 29 29 27 25 24 23 24 24 23 23 22 21 20 20 20 21 21 21 21 21 21 21 21 22 23 24 25 25 25 23
42 41 40 40 41 42 43 44 44 42 39 39 39 40 39 38 37 38 38 40 43 46 49 51 51 52 51 50 50 52 53 53 52 49 46 43 41 40 38 38 38 37 36 34 31 29 29 30 29 29 29 28 29 29 29 29 28 26 24 23 23 23 23 23 22 22 21 20 19 19 19 20 20 19 20 19 19 19 20 21 22 23 24 23 23
42 41 41 41 42 43 44 43 40 38 36 36 37 37 36 36 37 40 42 46 49 51 51 51 51 52 51 51 52 52 51 49 47 45 43 41 40 38 37 37 37 36 34 32 30 29 29 29 29 29 28 28 28 29 29 29 28 26 24 23 23 23 22 22 22 22 21 20 19 18 18 18 18 18 18 19 18 18 19 20 20 21 22 23 22
42 42 43 43 44 44 42 38 35 35 35 34 34 35 36 39 42 45 48 50 51 51 50 50 50 51 50 50 49 47 45 42 41 40 38 37 35 34 34 34 34 34 32 30 29 29 29 29 29 29 29 28 28 28 28 28 27 26 24 23 23 22 22 22 21 21 21 20 19 18 18 18 18 18 18 18 18 18 18 19 19 20 20 21 21
42 41 40 40 39 39 36 34 33 34 35 36 37 39 42 44 47 49 50 50 48 47 47 47 47 47 46 45 43 41 39 38 36 35 33 31 31 31 31 31 31 31 31 30 30 29 29 30 30 29 29 29 28 28 28 27 27 25 24 23 22 22 22 21 21 21 20 20 20 19 18 18 18 18 18 18 18 18 18 18 18 18 19 19 20
38 37 37 36 35 33 32 32 33 36 38 40 42 44 46 47 48 48 47 46 44 44 44 43 42 41 40 38 37 37 35 34 34 33 31 30 30 30 30 30 30 30 30 30 30 30 30 30 29 29 28 28 28 27 27 27 26 25 24 23 22 22 21 21 21 21 20 20 20 20 19 18 18 18 18 18 18 18 18 18 18 18 18 18 18
37 37 37 36 35 36 37 39 41 42 43 43 44 45 45 45 44 43 42 41 40 39 39 38 37 37 36 35 35 35 35 35 35 34 34 33 32 31 30 30 30 30 30 30 30 30 30 30 29 29 28 28 28 27 27 27 26 25 24 24 23 22 21 21 21 21 21 21 21 21 21 20 19 18 18 18 18 18 18 18 18 18 18 17 17
40 40 40 40 40 42 43 44 45 45 45 44 44 43 42 41 40 39 38 37 36 35 35 35 35 35 35 36 36 37 37 36 36 36 35 34 33 31 30 29 30 30 30 30 30 30 30 30 30 29 29 28 28 27 27 27 26 25 25 24 24 24 23 22 22 22 23 23 23 23 23 22 21 20 19 19 19 18 18 18 18 18 18 17 16
38 40 40 40 41 42 42 42 43 43 43 42 40 39 38 37 35 34 34 33 33 33 33 34 34 34 36 37 37 37 37 37 36 35 34 33 32 31 30 29 29 29 29 29 29 30 30 30 30 30 29 28 28 27 27 27 26 25 25 25 25 25 25 25 24 24 24 24 24 24 25 24 23 22 21 20 20 19 18 18 18 18 18 17 16
36 38 39 38 38 38 38 38 38 37 36 36 35 34 33 32 32 31 32 32 32 32 33 33 34 35 36 36 37 36 36 35 34 33 32 31 31 30 29 28 28 28 28 28 28 29 29 29 29 29 29 28 27 27 27 26 26 26 26 26 27 27 27 27 26 26 25 25 25 25 25 26 25 24 23 22 21 20 19 19 19 18 18 17 17
37 38 38 37 35 34 33 32 31 31 31 31 31 31 30 30 31 31 31 31 31 32 33 34 34 35 35 35 36 35 35 33 32 31 30 29 29 28 27 27 27 27 28 28 28 28 28 28 28 28 28 27 27 26 26 26 26 26 27 27 27 28 28 28 28 27 27 26 26 26 26 26 26 26 25 24 23 22 21 20 19 19 18 17 17
32 33 34 32 31 30 29 29 29 30 30 30 30 30 30 30 29 29 29 30 31 32 33 33 33 34 34 34 34 34 33 32 31 30 28 27 27 26 26 25 26 26 27 27 27 27 27 26 26 27 27 26 26 26 26 26 26 26 27 28 28 29 29 29 29 28 28 28 27 27 26 26 26 27 27 25 24 23 22 21 20 20 19 18 17
29 30 30 29 28 28 28 28 29 29 29 29 29 29 29 28 28 28 28 28 29 29 29 30 30 30 31 31 31 31 31 30 29 29 28 27 26 25 25 24 24 24 25 25 26 26 25 24 24 25 25 25 25 25 25 25 26 26 27 28 28 28 28 28 28 28 28 27 27 27 27 26 26 26 27 26 25 24 23 22 21 20 20 19 18
33 31 29 27 27 27 27 28 29 29 29 28 28 28 27 26 24 23 23 23 24 24 24 24 24 25 26 27 28 28 28 28 28 28 27 25 25 25 24 23 22 22 23 23 23 23 22 22 22 23 24 24 24 24 24 25 25 26 26 26 26 26 25 25 24 24 24 24 24 24 24 24 24 24 24 25 25 24 23 22 21 20 20 20 19
31 28 27 26 26 26 27 28 28 28 28 27 27 25 23 21 19 19 20 20 21 21 21 21 22 22 23 24 25 26 26 26 27 27 26 24 23 24 24 23 21 21 21 21 21 21 21 21 21 23 24 24 24 24 24 24 24 24 23 22 21 21 20 20 20 20 20 20 20 19 19 19 20 20 21 22 23 23 22 21 20 20 20 19 18
Wind_Direction
290 290 286 284 286 286 288 293 296 298 296 292 292 294 299 303 299 294 291 291 291 294 299 298 295 295 297 296 295 295 298 301 303 306 310 312 312 312 311 311 311 312 313 314 314 314 314 314 313 312 313 312 311 310 309 309 309 308 307 306 304 302 300 299 297 293 289 288 286 287 289 290 290 288 286 283 280 279 277 274 271 270 269 267 264
293 292 288 287 289 289 293 298 299 296 291 288 288 287 289 295 293 288 287 286 284 288 296 297 294 292 292 293 293 293 296 299 302 306 311 313 314 313 312 311 310 311 312 313 314 315 314 314 313 313 313 313 312 310 310 311 310 310 308 306 304 302 301 300 298 295 292 292 291 289 290 292 291 289 287 283 279 276 273 270 269 268 267 266 264
297 295 292 291 292 295 300 301 298 294 291 289 286 284 287 290 288 287 286 281 282 288 292 295 294 291 288 288 289 291 295 299 301 306 310 312 313 313 310 309 308 309 311 314 316 317 317 316 315 315 314 314 313 312 312 312 312 311 309 307 305 303 301 300 298 295 292 293 293 291 292 294 292 289 286 282 278 273 268 266 265 265 265 264 263
297 295 294 296 299 302 305 303 300 295 291 290 288 288 292 288 284 286 283 275 282 291 291 294 295 291 286 284 285 290 295 300 304 306 309 311 312 311 309 306 306 308 312 316 317 317 317 318 318 317 316 315 313 313 313 313 312 312 309 307 305 303 300 298 297 295 292 292 294 295 294 294 292 288 285 282 278 274 269 266 264 263 263 263 262
295 293 294 300 306 308 309 306 300 293 290 291 290 289 291 288 286 284 275 270 283 292 294 296 297 293 286 280 281 289 297 304 307 308 308 309 309 309 307 305 306 310 315 317 318 317 318 320 319 318 316 315 313 312 311 312 311 311 309 306 304 302 300 298 297 296 294 292 294 296 296 293 290 285 282 280 277 273 272 271 268 266 264 263 263
293 293 297 305 310 313 311 302 294 291 292 294 293 288 288 289 286 277 266 273 285 290 293 296 296 296 290 283 282 287 296 303 306 307 306 305 304 305 306 308 309 312 316 319 320 320 320 320 320 318 316 314 313 311 311 310 310 309 308 305 303 301 299 298 297 297 296 295 295 296 296 293 288 282 279 279 277 273 271 271 271 269 266 264 263
295 297 302 308 312 314 306 296 293 297 300 298 292 288 288 288 282 271 272 283 287 284 287 290 293 298 296 290 287 287 291 297 301 304 304 302 300 300 305 309 310 312 317 320 322 321 321 320 319 317 316 314 313 312 311 309 309 307 305 303 301 299 298 297 297 297 297 296 297 298 297 292 287 281 278 277 277 275 271 268 267 268 267 266 264
299 303 307 309 312 311 303 299 304 310 310 303 293 289 286 283 278 274 280 287 284 279 283 286 289 294 295 294 293 289 289 293 299 304 305 303 300 299 303 307 310 314 319 321 321 321 320 319 318 316 314 313 312 311 310 308 307 305 302 301 299 298 297 297 297 297 297 297 298 299 297 291 286 282 279 278 277 276 275 272 268 265 265 265 265
301 304 307 308 310 307 305 310 316 313 309 303 296 292 287 283 283 283 282 281 279 282 289 289 288 290 292 294 293 290 288 291 298 305 306 305 304 303 305 308 311 316 320 321 321 320 319 318 316 315 313 313 312 311 309 307 306 303 300 299 298 298 297 297 298 298 298 299 299 298 295 290 286 283 282 282 280 279 278 277 274 271 267 264 264
300 303 306 308 310 309 310 314 312 306 305 302 297 294 289 287 289 289 283 277 280 291 295 292 291 291 291 291 291 289 287 289 297 304 305 305 306 307 309 310 313 318 320 321 320 318 318 317 315 314 313 313 312 310 308 307 305 303 300 299 298 298 298 299 300 300 299 300 299 296 293 289 286 286 287 286 285 284 283 282 280 278 275 269 265
301 304 307 309 311 311 310 309 304 302 304 304 299 293 288 292 297 294 286 280 285 295 294 292 296 295 290 289 289 287 286 288 295 301 302 304 307 310 311 312 315 318 319 319 317 316 316 316 315 314 314 314 312 310 309 307 305 303 301 300 299 299 300 301 301 301 300 300 297 294 291 289 288 291 291 290 289 289 288 288 287 284 281 276 269
304 307 310 312 312 310 307 305 303 305 306 305 301 292 283 291 304 299 289 282 286 293 290 291 300 297 291 290 289 287 287 289 293 299 301 302 305 309 312 314 316 317 316 315 315 315 315 315 315 316 315 314 312 310 309 307 305 303 302 301 301 301 302 302 301 301 300 298 295 292 292 292 292 294 294 293 293 293 293 294 292 290 287 282 276
306 309 311 312 312 309 308 308 308 310 309 305 300 290 281 293 305 298 289 285 286 289 287 291 299 296 292 291 289 287 289 290 294 298 299 300 303 308 313 315 316 316 313 313 314 315 316 316 316 317 315 313 312 309 308 306 305 305 304 302 302 303 304 304 303 302 300 297 295 294 295 296 296 297 297 297 297 298 299 298 297 295 291 286 279
304 306 308 310 311 309 311 311 310 311 309 301 296 291 286 297 301 292 287 287 287 285 284 291 297 295 294 294 291 290 291 291 294 297 299 300 302 307 311 314 315 314 312 313 314 315 316 317 318 317 314 312 310 308 307 307 307 307 305 304 303 304 306 306 304 302 299 296 296 297 299 300 300 300 300 300 302 304 305 304 302 299 293 285 277
301 301 302 306 308 308 311 310 309 310 308 299 295 293 289 294 293 285 283 287 287 283 282 288 293 293 297 297 292 290 290 291 294 298 300 302 303 305 309 311 312 312 312 313 314 316 318 319 319 316 312 310 309 307 308 309 310 309 307 305 305 306 308 307 303 300 298 297 298 299 300 302 302 302 303 304 308 310 310 309 307 303 295 285 277
298 298 299 301 304 305 307 307 307 310 308 299 292 288 288 291 288 280 281 286 285 282 281 285 289 294 300 299 293 291 290 290 294 298 300 302 303 305 307 308 310 311 312 314 316 318 319 319 318 315 313 310 308 308 311 312 312 310 308 307 308 309 309 306 301 299 297 298 299 301 302 303 304 304 305 308 313 315 315 314 312 307 302 295 289
298 298 298 299 299 300 301 303 305 307 307 301 291 285 289 291 284 277 282 287 285 282 283 286 289 292 298 298 295 292 290 290 294 297 300 302 304 307 308 309 311 312 314 316 318 319 319 318 317 316 313 310 307 310 313 314 313 311 309 308 310 311 309 304 300 298 298 299 301 302 304 305 305 305 307 312 318 319 319 319 316 312 309 306 301
301 300 297 295 295 296 297 300 301 303 304 300 292 290 296 293 282 279 285 288 287 285 286 288 287 287 294 300 299 294 289 290 295 298 301 304 307 309 311 311 313 314 316 317 318 318 318 318 318 317 312 308 308 312 314 314 313 311 309 309 311 311 307 302 298 297 299 301 303 303 305 306 306 307 311 316 321 323 323 323 320 316 315 313 309
303 300 296 294 294 294 295 297 298 300 301 299 294 295 296 290 284 286 290 290 288 287 289 289 284 281 288 297 300 296 289 288 294 299 303 308 310 312 313 314 315 315 316 316 317 317 318 319 320 317 311 307 309 313 314 313 312 311 309 310 311 310 306 301 298 298 300 303 304 305 307 308 308 311 315 319 323 324 325 324 321 317 317 317 313
303 301 297 295 295 295 295 297 297 298 299 297 292 291 292 290 291 292 290 289 287 289 293 292 286 282 285 293 299 298 289 286 293 299 304 310 312 312 313 314 313 314 315 315 316 317 319 321 320 315 309 307 310 313 313 312 311 310 310 310 310 308 305 300 298 299 301 303 304 305 307 308 309 312 316 320 323 325 325 325 322 317 315 317 314
301 298 296 296 297 297 297 297 296 296 298 298 294 294 297 297 296 293 290 289 290 292 295 295 290 286 286 290 297 297 290 291 300 303 305 311 312 311 311 311 311 313 315 316 318 319 320 319 317 313 308 307 310 312 311 310 310 310 310 310 309 307 304 300 299 300 302 304 305 305 306 307 309 311 315 319 322 325 327 327 325 318 314 315 313
294 291 291 293 295 295 295 294 293 294 296 296 298 302 302 300 298 294 290 290 292 294 295 293 289 285 284 286 291 294 293 295 303 307 308 310 310 309 310 312 314 315 316 317 319 319 317 316 313 310 307 307 309 310 309 310 310 310 309 308 306 305 303 301 300 300 302 304 306 307 307 307 307 310 314 319 323 326 329 330 327 320 314 314 312
287 285 287 290 291 291 290 289 289 290 292 293 297 301 301 298 294 290 288 289 292 293 293 289 283 281 281 280 285 293 294 293 300 308 310 308 308 311 313 315 316 316 317 317 316 314 313 312 310 307 305 306 307 308 308 309 309 308 307 306 305 303 302 301 300 300 302 305 307 308 307 306 306 309 314 319 323 327 330 331 328 321 314 313 310
282 281 285 289 289 287 286 285 285 286 287 290 295 299 300 296 290 289 293 294 291 291 291 285 279 279 278 275 281 289 290 290 300 308 309 307 309 313 315 315 315 315 315 313 311 310 310 309 306 305 304 304 305 307 307 308 308 307 305 304 303 302 300 300 300 300 302 305 307 307 306 305 306 310 315 319 322 327 331 332 330 324 316 314 310
280 280 284 286 284 283 282 282 283 283 284 288 293 296 296 293 290 292 295 292 288 291 293 286 280 277 274 272 279 288 291 297 305 308 307 307 309 312 313 313 312 311 310 308 307 308 308 305 304 304 303 303 303 305 305 306 306 305 303 303 302 300 298 299 300 300 302 304 306 307 306 306 308 311 315 319 322 328 333 335 335 330 318 314 311
280 282 283 282 281 280 281 281 282 283 286 289 293 294 293 291 290 290 290 288 286 290 292 286 277 272 270 277 290 298 301 304 307 306 305 306 308 311 312 310 308 307 305 305 306 307 305 303 302 303 302 301 302 303 304 305 304 303 302 303 303 300 297 297 298 299 300 303 306 307 307 308 309 312 315 318 323 330 336 337 337 333 320 313 313
281 283 281 280 279 280 281 282 283 285 288 291 292 292 291 290 289 289 290 290 286 286 288 282 270 265 276 294 302 305 306 305 304 303 303 305 309 310 308 305 304 304 304 305 307 305 302 301 301 301 301 300 301 302 303 304 303 302 302 304 304 300 295 294 296 297 299 303 305 307 308 308 309 311 314 318 324 331 337 338 339 337 325 315 313
281 281 279 279 280 280 282 283 284 286 288 290 290 290 290 290 291 291 291 290 287 288 288 278 264 270 292 302 304 305 306 304 301 301 303 306 307 306 303 302 303 304 305 306 306 302 300 299 300 300 300 299 300 301 302 303 302 301 301 303 305 300 293 290 293 295 298 302 304 306 307 308 309 311 314 319 325 332 337 338 339 340 334 320 313
278 278 279 279 281 282 284 285 285 286 288 288 288 288 289 291 291 291 291 292 290 290 286 274 268 282 298 302 304 305 304 302 302 303 304 305 304 301 300 302 304 304 305 306 303 300 299 298 298 298 298 298 299 300 301 302 301 299 299 302 305 301 293 287 289 294 297 301 304 307 307 308 309 312 315 320 326 331 336 339 339 341 341 329 314
277 279 280 281 282 284 284 285 286 288 288 289 288 287 288 290 289 292 299 299 291 284 277 272 277 291 299 302 303 303 302 303 304 304 304 303 301 299 300 302 304 304 304 303 301 299 298 297 297 297 296 297 298 299 300 301 299 297 298 301 304 303 296 287 285 290 295 299 303 306 307 308 309 311 316 321 326 330 334 338 339 341 345 341 319
279 280 281 282 283 284 285 286 288 289 289 289 287 285 286 287 286 291 298 292 280 273 273 277 285 294 298 300 300 300 301 302 303 302 302 301 300 299 300 302 302 302 302 301 299 297 296 295 295 295 295 295 297 298 299 299 297 296 297 299 302 303 299 290 285 285 290 296 301 304 306 307 309 311 316 321 325 328 332 337 339 341 346 349 335
279 280 280 281 282 283 285 287 288 288 288 287 286 285 286 286 284 283 284 280 276 277 279 282 287 293 295 296 298 300 301 301 301 301 301 300 300 301 301 301 301 301 300 299 297 295 295 294 293 293 294 295 296 297 297 297 296 295 296 297 299 300 300 295 289 286 288 291 295 299 303 306 308 311 315 319 323 326 331 335 339 342 344 348 347
281 280 280 280 282 283 284 285 286 286 286 286 286 286 286 286 285 283 283 282 282 283 284 286 290 294 296 298 300 301 301 301 302 301 301 301 302 303 303 303 303 301 300 298 295 295 294 293 292 293 294 295 295 296 296 296 296 295 295 296 298 299 299 298 296 293 292 290 290 292 296 301 305 308 312 317 320 324 330 334 338 342 344 347 349
283 281 279 280 281 282 283 284 284 285 285 286 286 286 286 286 286 286 287 287 288 289 291 294 298 299 301 302 302 301 301 301 301 301 302 304 304 303 304 306 305 302 300 298 296 295 293 292 293 294 294 294 294 294 295 296 295 295 295 296 298 298 298 298 298 299 297 293 290 289 290 294 300 304 309 314 318 323 329 333 336 341 343 345 349
280 279 279 280 281 283 284 284 285 285 285 285 286 286 286 287 288 289 290 292 293 294 296 299 302 303 303 302 301 301 300 300 302 303 305 304 302 302 304 305 303 301 300 299 297 294 292 291 292 293 293 293 293 293 295 296 294 294 296 297 297 298 297 297 298 299 299 297 293 290 289 291 295 300 305 311 316 322 328 332 335 339 341 345 352
280 279 279 280 281 282 283 284 284 283 285 286 286 286 287 287 289 290 293 294 294 295 297 300 303 304 302 300 299 300 301 301 303 305 305 303 302 303 304 303 300 299 300 298 295 292 291 291 291 291 291 291 292 293 294 294 293 294 296 297 297 297 296 296 297 297 298 298 295 292 291 292 294 299 303 308 314 320 325 329 333 336 339 344 352
283 282 282 282 282 282 282 281 281 283 286 287 286 285 286 286 287 289 292 293 293 295 299 301 302 301 300 298 298 300 301 302 303 304 304 303 303 303 303 300 299 298 298 295 293 291 290 290 289 289 289 289 290 292 292 292 293 294 296 296 296 295 295 295 295 295 296 298 297 295 294 294 296 299 303 308 313 318 323 327 331 335 338 341 350
284 283 283 281 280 280 279 279 281 283 284 284 283 284 284 284 285 287 291 293 295 298 300 300 299 298 298 298 299 300 300 301 302 302 301 302 302 302 301 298 297 297 295 293 290 289 289 288 287 287 287 288 289 290 290 291 293 294 295 295 294 293 294 294 294 294 295 296 298 298 297 298 299 300 302 306 311 315 320 325 329 332 335 338 345
283 283 282 280 279 279 279 280 281 281 281 281 281 281 281 283 286 290 294 297 299 299 299 298 297 297 298 298 299 299 299 300 301 301 300 301 302 301 299 297 296 295 292 290 287 286 286 285 284 284 285 285 286 287 289 290 292 293 295 294 292 292 292 292 293 293 293 294 296 297 297 298 299 300 301 304 308 312 317 321 325 329 333 335 340
284 283 282 281 281 280 280 279 278 278 278 279 278 278 281 286 291 295 298 299 298 297 296 296 296 296 297 298 298 298 299 300 301 300 300 300 300 300 297 295 294 292 290 288 286 285 283 282 282 282 283 283 284 285 287 289 291 292 293 293 291 290 290 291 291 292 292 293 293 294 295 296 297 298 299 301 305 309 313 318 322 326 329 332 336
282 281 281 282 281 279 277 277 276 276 278 279 279 281 285 290 293 296 296 296 295 295 294 295 295 296 296 296 297 297 298 299 299 299 299 299 299 298 296 293 291 290 289 288 287 285 283 282 281 282 283 283 283 284 286 288 290 291 292 292 290 289 289 290 290 291 291 292 292 292 293 294 295 298 299 301 303 307 310 314 318 321 324 328 332
280 278 277 278 277 274 272 274 277 279 279 279 281 284 288 291 292 293 293 293 293 293 294 294 294 295 296 296 297 297 298 298 298 297 297 298 298 297 294 291 288 287 286 286 286 285 284 283 283 284 284 284 284 285 287 288 289 290 292 291 290 288 287 288 289 289 289 290 291 292 292 292 293 296 298 299 301 304 307 310 314 317 320 324 327
277 276 274 272 270 269 270 274 278 280 281 282 284 287 289 290 290 290 290 291 292 292 292 293 293 295 296 296 296 297 297 296 296 297 297 298 297 295 292 288 286 284 284 284 285 285 284 284 285 285 285 284 285 286 287 288 289 290 291 291 291 290 288 286 286 287 288 288 289 290 291 291 292 293 295 296 298 300 303 306 309 312 315 318 321
276 278 275 271 268 268 271 275 277 280 282 284 287 288 288 288 289 290 290 291 291 291 292 293 294 295 295 295 295 295 296 296 297 297 298 297 295 292 289 286 285 284 285 285 285 286 286 286 286 286 285 285 286 287 288 289 289 290 291 292 292 290 289 287 286 285 286 286 287 287 288 288 290 291 292 294 294 295 298 301 303 306 309 312 314
278 279 276 271 269 272 275 278 280 282 284 285 286 286 287 288 289 290 290 291 291 292 293 294 294 294 294 294 294 295 296 297 297 297 296 295 293 291 289 288 287 286 285 286 286 285 285 285 285 285 284 285 286 287 288 288 289 290 290 291 291 290 289 288 287 286 285 285 285 286 286 286 287 288 290 291 292 293 294 297 298 300 303 305 307
278 276 274 274 277 281 285 286 286 285 285 285 286 287 288 289 289 289 290 291 292 293 294 294 294 294 294 294 295 296 296 296 296 295 294 293 292 291 291 290 289 287 286 285 285 284 283 283 282 282 283 284 285 286 287 288 289 289 289 290 290 289 289 288 288 287 286 284 283 283 283 284 285 287 288 289 290 291 291 293 294 295 297 299 300
281 279 280 284 287 289 291 291 290 289 288 287 288 288 288 288 289 290 291 292 293 293 293 293 293 294 295 296 296 296 296 295 295 295 295 294 294 293 292 290 288 286 285 284 283 282 281 280 281 281 282 284 285 286 287 288 288 289 289 289 288 288 287 287 286 286 285 284 283 281 281 281 282 284 286 287 288 289 289 290 291 291 292 294 295
288 287 289 291 291 290 290 290 288 287 287 287 287 288 288 289 291 292 293 293 293 293 293 294 295 296 297 297 296 296 296 296 297 297 297 297 297 296 294 290 287 285 283 282 281 280 280 281 281 282 283 284 285 286 288 288 288 288 288 287 287 286 286 285 285 284 283 283 282 280 279 278 279 281 283 284 286 287 287 287 289 289 289 289 289
297 294 292 290 289 288 288 286 285 285 286 286 287 287 289 291 292 293 293 293 293 294 297 299 299 299 299 298 298 297 298 298 299 299 299 300 300 299 297 294 291 288 285 283 282 282 282 282 283 283 284 285 287 287 288 288 288 288 288 287 286 286 285 284 284 283 282 281 280 278 278 277 276 276 279 281 282 284 285 285 286 286 286 287 287
295 291 288 287 286 285 285 284 285 286 286 286 287 288 290 291 292 292 293 295 298 302 306 307 307 306 305 305 304 303 303 303 301 300 301 301 301 300 299 298 295 291 288 286 285 284 284 284 285 285 286 287 288 288 289 289 288 288 288 287 286 286 286 286 286 284 282 280 278 277 275 274 273 272 273 275 278 280 282 283 283 283 284 284 285
288 283 282 283 284 285 286 286 286 286 286 286 288 289 290 291 292 293 296 301 305 309 312 314 315 315 314 313 312 310 309 307 304 302 302 302 300 298 298 298 297 293 290 288 287 287 287 288 288 287 288 288 288 289 289 289 288 288 287 286 286 287 288 288 288 287 285 283 281 279 277 275 273 271 270 271 274 277 280 281 281 282 282 282 282
Height
5890 5888 5885 5884 5884 5884 5885 5885 5884 5883 5880 5878 5877 5877 5877 5876 5875 5874 5874 5874 5873 5873 5872 5871 5870 5869 5868 5867 5865 5864 5863 5861 5860 5858 5857 5856 5855 5854 5852 5850 5848 5846 5844 5842 5840 5837 5834 5832 5830 5829 5827 5825 5823 5820 5818 5816 5814 5811 5808 5806 5803 5801 5799 5797 5798 5797 5794 5791 5791 5788 5785 5784 5782 5779 5779 5778 5776 5775 5775 5774 5773 5774 5774 5774 5775
5887 5885 5882 5881 5881 5881 5882 5883 5882 5880 5876 5874 5874 5873 5873 5872 5871 5871 5871 5871 5870 5869 5868 5868 5867 5867 5865 5864 5863 5861 5860 5858 5856 5854 5853 5852 5851 5850 5848 5847 5844 5842 5840 5838 5836 5833 5830 5827 5825 5824 5822 5820 5817 5815 5812 5810 5808 5805 5802 5800 5797 5795 5792 5791 5790 5790 5789 5785 5784 5782 5779 5777 5776 5773 5771 5771 5770 5768 5768 5766 5766 5766 5766 5766 5768
5884 5881 5878 5878 5879 5880 5880 5880 5879 5876 5873 5871 5871 5870 5869 5869 5868 5867 5867 5867 5866 5865 5864 5864 5864 5863 5862 5861 5859 5858 5856 5854 5852 5850 5849 5847 5846 5845 5844 5842 5840 5838 5836 5834 5831 5828 5825 5822 5820 5818 5817 5814 5812 5809 5806 5804 5802 5799 5796 5793 5791 5789 5786 5784 5783 5782 5783 5780 5777 5775 5773 5771 5769 5766 5764 5764 5763 5762 5761 5760 5759 5759 5758 5758 5760
5880 5877 5875 5876 5878 5878 5878 5876 5874 5872 5869 5868 5868 5868 5867 5866 5863 5862 5863 5862 5861 5860 5860 5860 5859 5859 5858 5857 5856 5854 5852 5849 5848 5846 5844 5843 5842 5841 5839 5838 5836 5834 5831 5829 5826 5823 5820 5818 5815 5813 5811 5809 5806 5803 5800 5798 5796 5793 5791 5787 5785 5783 5781 5778 5776 5775 5775 5774 5771 5769 5767 5765 5763 5760 5757 5757 5757 5755 5754 5754 5753 5753 5752 5751 5752
5877 5874 5872 5874 5876 5875 5874 5871 5867 5865 5864 5865 5866 5865 5864 5861 5857 5856 5857 5858 5857 5856 5856 5855 5855 5855 5854 5853 5851 5849 5847 5845 5843 5842 5840 5838 5837 5836 5835 5833 5831 5829 5826 5824 5821 5818 5816 5813 5810 5808 5806 5804 5801 5797 5794 5792 5790 5787 5785 5782 5780 5778 5775 5772 5770 5768 5767 5767 5765 5763 5761 5759 5757 5754 5751 5750 5751 5750 5748 5748 5747 5746 5745 5745 5745
5873 5871 5872 5873 5873 5872 5869 5863 5858 5859 5862 5864 5863 5861 5858 5855 5853 5853 5853 5853 5853 5852 5851 5851 5851 5851 5850 5848 5846 5845 5843 5841 5840 5838 5836 5835 5833 5832 5830 5828 5826 5824 5822 5819 5816 5813 5810 5807 5805 5803 5801 5798 5795 5792 5788 5786 5783 5781 5779 5776 5774 5772 5769 5766 5764 5762 5760 5759 5758 5757 5755 5753 5751 5749 5746 5744 5744 5744 5743 5743 5742 5740 5739 5739 5739
5870 5869 5871 5871 5870 5868 5861 5855 5855 5858 5860 5860 5858 5854 5852 5850 5849 5850 5849 5849 5848 5847 5846 5846 5846 5846 5845 5843 5842 5840 5839 5837 5835 5834 5832 5831 5829 5827 5825 5823 5821 5819 5817 5814 5811 5808 5805 5802 5800 5798 5795 5793 5789 5786 5782 5779 5777 5775 5772 5770 5768 5766 5764 5761 5758 5756 5754 5752 5751 5749 5748 5747 5745 5742 5740 5738 5737 5736 5736 5737 5737 5734 5732 5732 5732
5868 5868 5868 5867 5866 5863 5856 5852 5856 5856 5853 5852 5850 5848 5846 5844 5843 5845 5844 5844 5844 5842 5842 5841 5841 5840 5839 5838 5837 5835 5834 5833 5831 5830 5828 5826 5824 5822 5820 5818 5816 5814 5811 5808 5805 5802 5799 5797 5795 5793 5790 5787 5783 5780 5776 5773 5771 5769 5766 5764 5763 5760 5758 5755 5752 5750 5747 5745 5743 5741 5741 5740 5738 5735 5734 5732 5730 5729 5728 5728 5729 5728 5727 5726 5725
5866 5865 5864 5862 5861 5858 5853 5852 5854 5851 5847 5845 5842 5841 5841 5838 5838 5839 5839 5839 5839 5838 5837 5837 5836 5835 5834 5833 5832 5831 5829 5828 5827 5825 5823 5821 5819 5817 5815 5812 5810 5808 5806 5803 5800 5796 5794 5792 5790 5788 5785 5782 5778 5774 5771 5768 5765 5763 5761 5758 5756 5754 5751 5749 5746 5743 5741 5738 5736 5734 5733 5733 5731 5729 5728 5726 5724 5723 5721 5719 5720 5720 5720 5720 5720
5864 5862 5860 5859 5856 5853 5850 5850 5849 5846 5843 5840 5836 5835 5836 5834 5834 5834 5834 5834 5834 5834 5833 5832 5831 5830 5829 5828 5827 5826 5825 5823 5822 5820 5818 5816 5814 5812 5809 5807 5805 5803 5800 5797 5794 5791 5789 5787 5785 5782 5780 5776 5772 5769 5765 5762 5760 5757 5755 5752 5750 5747 5745 5743 5740 5737 5734 5732 5729 5727 5726 5726 5724 5723 5722 5719 5718 5717 5714 5712 5712 5712 5711 5711 5712
5859 5858 5856 5855 5852 5850 5848 5846 5844 5842 5839 5835 5830 5830 5831 5831 5830 5830 5830 5830 5831 5830 5830 5828 5827 5825 5824 5823 5822 5821 5819 5818 5817 5815 5813 5811 5809 5807 5805 5802 5800 5798 5795 5792 5790 5787 5785 5783 5780 5777 5774 5770 5767 5763 5760 5757 5754 5751 5748 5745 5743 5741 5739 5736 5733 5730 5728 5725 5723 5720 5719 5719 5718 5717 5716 5713 5712 5710 5707 5705 5703 5703 5702 5701 5703
5855 5853 5852 5850 5848 5846 5844 5842 5840 5838 5835 5831 5827 5826 5826 5827 5827 5826 5826 5827 5827 5826 5825 5824 5822 5821 5819 5819 5817 5816 5814 5813 5812 5810 5808 5807 5805 5803 5801 5798 5795 5792 5790 5788 5786 5784 5781 5778 5774 5771 5768 5765 5761 5758 5755 5752 5749 5746 5742 5739 5736 5734 5732 5730 5727 5724 5722 5719 5717 5714 5713 5713 5712 5711 5709 5707 5705 5703 5700 5698 5695 5693 5692 5690 5691
5851 5849 5847 5846 5844 5842 5839 5837 5835 5833 5831 5828 5826 5824 5824 5824 5824 5823 5822 5822 5822 5822 5821 5819 5818 5816 5815 5814 5813 5811 5810 5808 5806 5805 5803 5802 5801 5799 5796 5793 5790 5788 5786 5784 5782 5779 5777 5773 5769 5765 5762 5759 5756 5753 5750 5748 5744 5741 5737 5733 5730 5727 5725 5723 5721 5718 5716 5714 5711 5709 5707 5707 5706 5705 5703 5701 5699 5697 5694 5691 5688 5684 5682 5680 5681
5847 5845 5844 5842 5839 5836 5834 5831 5830 5828 5826 5824 5823 5821 5820 5819 5819 5818 5817 5817 5817 5817 5816 5815 5813 5812 5811 5810 5809 5807 5805 5803 5801 5800 5799 5797 5795 5793 5791 5788 5786 5785 5782 5779 5777 5774 5771 5768 5764 5760 5756 5753 5750 5748 5746 5743 5739 5736 5732 5728 5725 5721 5719 5717 5714 5712 5711 5708 5707 5705 5702 5701 5699 5698 5697 5695 5692 5690 5687 5683 5679 5675 5672 5670 5670
5843 5841 5840 5837 5835 5832 5829 5827 5824 5823 5822 5820 5818 5817 5816 5814 5814 5813 5813 5813 5813 5812 5811 5810 5809 5808 5808 5807 5805 5803 5801 5799 5797 5795 5794 5792 5790 5788 5786 5784 5782 5780 5777 5774 5772 5769 5765 5762 5758 5755 5752 5748 5745 5743 5741 5738 5734 5731 5727 5723 5719 5716 5713 5711 5709 5707 5705 5704 5702 5700 5698 5696 5694 5692 5690 5689 5686 5683 5680 5676 5670 5664 5661 5661 5660
5839 5837 5835 5833 5831 5829 5825 5823 5820 5818 5818 5816 5812 5811 5811 5810 5809 5809 5809 5808 5808 5807 5806 5805 5804 5804 5804 5803 5801 5799 5796 5794 5793 5791 5789 5787 5785 5784 5782 5780 5777 5775 5772 5769 5766 5763 5759 5756 5753 5750 5746 5743 5741 5738 5735 5732 5729 5725 5721 5717 5714 5711 5708 5706 5704 5702 5701 5699 5698 5696 5694 5691 5689 5686 5684 5683 5681 5677 5673 5669 5662 5656 5652 5651 5651
5835 5834 5832 5830 5828 5825 5822 5819 5816 5814 5813 5810 5806 5805 5806 5806 5805 5805 5804 5804 5803 5802 5801 5801 5800 5800 5799 5797 5795 5793 5791 5789 5788 5786 5784 5782 5781 5779 5777 5774 5772 5769 5766 5763 5760 5757 5754 5751 5748 5745 5741 5739 5736 5733 5730 5727 5723 5720 5716 5713 5709 5706 5704 5702 5700 5698 5696 5695 5693 5691 5689 5687 5685 5682 5679 5676 5674 5669 5664 5660 5655 5649 5644 5642 5642
5831 5830 5828 5826 5824 5822 5819 5816 5813 5810 5808 5806 5803 5802 5803 5802 5801 5801 5800 5799 5798 5798 5797 5796 5795 5794 5793 5791 5790 5788 5786 5784 5783 5781 5779 5778 5776 5774 5771 5769 5767 5764 5761 5758 5755 5752 5749 5746 5743 5740 5737 5734 5731 5728 5724 5721 5718 5715 5712 5708 5705 5702 5700 5698 5696 5694 5693 5691 5689 5687 5685 5683 5680 5678 5674 5671 5668 5663 5657 5652 5646 5641 5638 5636 5634
5827 5826 5824 5822 5820 5818 5815 5813 5809 5805 5803 5802 5800 5798 5798 5797 5797 5797 5796 5795 5794 5794 5793 5792 5790 5789 5788 5786 5784 5783 5781 5780 5778 5776 5774 5773 5771 5768 5766 5764 5761 5759 5756 5753 5750 5747 5743 5740 5737 5735 5732 5729 5726 5723 5719 5716 5713 5710 5707 5704 5701 5699 5697 5695 5693 5691 5690 5688 5685 5683 5681 5678 5676 5673 5670 5666 5663 5658 5653 5647 5641 5635 5632 5631 5628
5822 5821 5819 5817 5815 5813 5811 5809 5805 5800 5798 5797 5795 5793 5792 5792 5793 5793 5792 5791 5790 5789 5788 5787 5785 5784 5783 5781 5779 5778 5777 5775 5774 5771 5769 5768 5766 5763 5761 5759 5756 5754 5751 5748 5744 5740 5736 5734 5732 5730 5727 5724 5721 5718 5714 5711 5708 5705 5702 5700 5697 5695 5693 5691 5689 5688 5686 5685 5682 5679 5677 5675 5672 5669 5667 5663 5659 5656 5652 5646 5639 5633 5628 5626 5624
5816 5815 5813 5812 5810 5808 5806 5804 5801 5796 5793 5791 5789 5788 5787 5787 5788 5788 5787 5786 5785 5784 5783 5782 5780 5779 5778 5777 5775 5773 5771 5770 5769 5766 5764 5762 5761 5758 5756 5755 5752 5749 5746 5742 5738 5734 5730 5728 5727 5725 5722 5719 5716 5713 5709 5706 5703 5700 5698 5696 5693 5691 5689 5688 5686 5684 5682 5681 5679 5677 5674 5672 5670 5667 5664 5661 5657 5654 5649 5643 5637 5631 5625 5621 5619
5810 5809 5808 5807 5806 5804 5802 5800 5797 5794 5790 5787 5785 5784 5784 5784 5784 5783 5782 5782 5781 5780 5778 5777 5776 5775 5774 5772 5771 5768 5766 5764 5764 5761 5759 5757 5756 5753 5751 5749 5746 5743 5739 5735 5731 5728 5726 5724 5722 5719 5716 5714 5711 5708 5705 5702 5699 5696 5694 5691 5689 5687 5686 5684 5683 5681 5679 5677 5675 5673 5671 5669 5667 5664 5661 5658 5655 5651 5646 5640 5634 5629 5624 5619 5615
5805 5804 5803 5802 5801 5799 5798 5796 5794 5791 5787 5782 5781 5781 5781 5780 5780 5779 5778 5777 5776 5775 5774 5772 5772 5771 5769 5768 5766 5764 5762 5760 5758 5756 5754 5752 5750 5747 5745 5743 5739 5736 5732 5729 5726 5724 5722 5720 5717 5714 5711 5708 5706 5703 5700 5697 5695 5692 5690 5687 5685 5684 5682 5681 5679 5678 5676 5674 5672 5670 5668 5666 5664 5662 5659 5656 5653 5648 5644 5638 5632 5627 5623 5619 5615
5799 5799 5798 5797 5796 5794 5793 5791 5789 5787 5783 5779 5777 5777 5776 5775 5774 5773 5773 5771 5770 5770 5768 5767 5766 5765 5764 5762 5761 5759 5757 5755 5753 5751 5749 5746 5744 5741 5739 5736 5733 5730 5726 5724 5722 5720 5717 5715 5712 5709 5707 5704 5701 5698 5696 5693 5691 5688 5685 5683 5681 5680 5678 5677 5676 5674 5672 5670 5668 5667 5665 5663 5661 5658 5656 5653 5650 5646 5641 5635 5629 5623 5619 5616 5613
5794 5793 5793 5792 5790 5789 5788 5787 5784 5782 5780 5776 5773 5772 5771 5770 5768 5767 5766 5765 5764 5763 5762 5761 5760 5759 5757 5756 5755 5753 5751 5749 5748 5745 5743 5740 5737 5735 5733 5730 5727 5724 5721 5720 5718 5715 5712 5710 5707 5704 5702 5699 5696 5694 5691 5689 5687 5684 5682 5679 5678 5676 5675 5673 5672 5671 5669 5667 5665 5663 5661 5659 5657 5655 5652 5649 5646 5642 5638 5633 5626 5621 5617 5614 5611
5788 5788 5787 5786 5784 5783 5783 5782 5779 5777 5775 5772 5770 5768 5766 5764 5763 5761 5760 5759 5759 5758 5756 5754 5753 5752 5751 5750 5749 5747 5745 5744 5742 5739 5737 5734 5732 5730 5727 5724 5721 5719 5717 5715 5713 5710 5707 5705 5702 5699 5697 5694 5692 5689 5687 5685 5683 5680 5678 5676 5674 5672 5671 5670 5669 5667 5665 5664 5662 5660 5658 5656 5654 5651 5648 5646 5642 5638 5634 5630 5624 5619 5614 5611 5609
5781 5781 5781 5780 5779 5778 5778 5777 5775 5773 5770 5767 5764 5762 5760 5758 5756 5755 5754 5753 5752 5751 5749 5748 5746 5745 5744 5743 5742 5741 5739 5738 5736 5734 5731 5729 5727 5724 5722 5719 5716 5714 5712 5710 5707 5705 5702 5700 5697 5694 5692 5689 5687 5685 5683 5681 5679 5676 5674 5672 5670 5669 5667 5666 5665 5664 5662 5661 5659 5657 5655 5653 5651 5649 5646 5643 5639 5635 5631 5626 5621 5617 5612 5608 5606
5775 5775 5774 5773 5772 5772 5772 5772 5770 5768 5766 5763 5758 5754 5753 5752 5750 5748 5747 5746 5745 5743 5742 5741 5740 5739 5738 5737 5736 5734 5733 5732 5730 5728 5725 5723 5722 5719 5716 5714 5711 5709 5707 5704 5702 5700 5697 5695 5692 5690 5687 5685 5683 5680 5678 5677 5675 5672 5670 5668 5667 5665 5664 5663 5662 5660 5659 5658 5656 5654 5652 5650 5648 5646 5643 5640 5637 5633 5629 5624 5619 5614 5610 5606 5604
5769 5769 5768 5767 5766 5766 5765 5765 5764 5762 5761 5759 5755 5750 5747 5746 5745 5743 5741 5739 5738 5738 5738 5737 5735 5734 5732 5731 5730 5728 5727 5725 5724 5722 5720 5718 5716 5713 5711 5708 5706 5703 5701 5699 5697 5694 5692 5690 5687 5685 5683 5680 5678 5676 5674 5672 5671 5669 5667 5665 5663 5661 5660 5659 5658 5657 5655 5654 5653 5651 5650 5647 5645 5643 5641 5638 5634 5630 5627 5623 5618 5613 5609 5605 5602
5763 5763 5762 5761 5761 5760 5759 5758 5757 5756 5755 5753 5750 5746 5744 5742 5740 5737 5734 5734 5735 5735 5734 5732 5730 5728 5727 5725 5724 5723 5722 5720 5718 5716 5714 5712 5710 5707 5705 5702 5700 5698 5695 5693 5691 5689 5687 5684 5682 5680 5678 5676 5674 5672 5670 5669 5667 5665 5663 5662 5660 5658 5656 5655 5654 5654 5652 5651 5650 5649 5647 5645 5643 5640 5638 5635 5632 5628 5625 5621 5617 5612 5608 5604 5602
5757 5757 5756 5756 5755 5754 5753 5751 5750 5749 5748 5746 5743 5740 5739 5738 5736 5733 5731 5732 5732 5731 5728 5726 5724 5723 5721 5720 5719 5718 5717 5714 5712 5709 5707 5705 5703 5701 5698 5696 5694 5692 5690 5688 5686 5683 5681 5679 5677 5675 5673 5671 5670 5668 5666 5665 5664 5662 5660 5658 5656 5655 5653 5652 5651 5650 5649 5648 5647 5646 5644 5642 5640 5638 5636 5633 5631 5627 5624 5620 5616 5612 5607 5603 5600
5751 5750 5750 5749 5748 5747 5746 5745 5743 5742 5740 5739 5736 5734 5733 5733 5731 5729 5729 5728 5727 5725 5723 5721 5720 5718 5717 5716 5714 5712 5710 5707 5704 5702 5700 5698 5696 5694 5692 5690 5688 5686 5684 5682 5680 5677 5675 5673 5671 5670 5668 5667 5665 5664 5662 5661 5660 5658 5656 5654 5653 5651 5650 5648 5647 5646 5645 5644 5643 5642 5641 5639 5637 5635 5633 5631 5629 5626 5623 5619 5616 5612 5607 5603 5600
5744 5743 5742 5742 5741 5740 5738 5737 5737 5735 5733 5732 5730 5728 5726 5725 5724 5723 5723 5722 5720 5719 5717 5715 5714 5713 5711 5709 5707 5705 5702 5700 5698 5695 5693 5691 5690 5688 5686 5684 5682 5680 5678 5676 5674 5672 5670 5668 5666 5665 5663 5662 5661 5660 5658 5657 5656 5655 5652 5650 5649 5648 5646 5645 5643 5642 5642 5641 5640 5639 5638 5636 5635 5633 5631 5629 5627 5625 5622 5619 5615 5611 5608 5604 5600
5737 5736 5735 5734 5733 5732 5731 5730 5729 5728 5727 5725 5724 5722 5720 5719 5717 5717 5716 5714 5713 5712 5710 5708 5707 5705 5703 5701 5699 5698 5696 5693 5691 5689 5687 5686 5684 5682 5680 5678 5676 5674 5672 5670 5668 5666 5664 5663 5661 5660 5659 5658 5657 5656 5655 5654 5653 5651 5649 5647 5645 5644 5643 5641 5640 5639 5638 5637 5636 5635 5635 5633 5632 5630 5628 5626 5625 5622 5620 5617 5614 5611 5608 5605 5601
5731 5730 5729 5727 5726 5725 5724 5723 5722 5721 5720 5719 5718 5716 5714 5712 5711 5710 5708 5707 5706 5705 5703 5702 5700 5698 5696 5694 5693 5691 5689 5687 5685 5683 5681 5680 5678 5676 5674 5672 5670 5668 5667 5665 5663 5661 5660 5658 5657 5656 5655 5654 5653 5652 5651 5650 5649 5647 5645 5643 5642 5640 5639 5638 5637 5636 5635 5634 5633 5632 5631 5630 5629 5628 5626 5625 5623 5620 5618 5616 5613 5611 5608 5606 5602
5725 5724 5723 5722 5720 5719 5718 5716 5714 5713 5713 5712 5711 5709 5707 5706 5704 5703 5702 5701 5699 5698 5697 5696 5694 5692 5690 5688 5687 5685 5683 5681 5679 5677 5675 5673 5671 5669 5668 5666 5664 5663 5661 5660 5658 5656 5655 5654 5653 5652 5651 5650 5649 5648 5647 5646 5645 5643 5641 5640 5638 5637 5636 5635 5634 5633 5632 5631 5630 5629 5628 5627 5626 5625 5624 5622 5621 5619 5617 5614 5612 5610 5608 5605 5603
5717 5717 5716 5715 5714 5712 5711 5709 5707 5706 5706 5705 5703 5702 5700 5699 5698 5697 5696 5695 5693 5692 5691 5689 5687 5685 5684 5682 5680 5678 5676 5674 5673 5671 5669 5667 5665 5664 5662 5660 5659 5657 5656 5654 5653 5652 5651 5650 5649 5648 5647 5646 5645 5644 5643 5642 5641 5640 5638 5636 5635 5634 5633 5632 5631 5630 5629 5628 5627 5626 5625 5624 5624 5623 5621 5620 5619 5617 5615 5613 5611 5609 5607 5605 5603
5711 5710 5709 5708 5706 5704 5703 5702 5701 5700 5700 5699 5697 5695 5694 5694 5693 5692 5691 5689 5688 5686 5685 5683 5681 5679 5677 5675 5673 5671 5670 5668 5667 5665 5663 5661 5660 5658 5656 5655 5653 5652 5651 5649 5648 5648 5647 5646 5645 5644 5643 5642 5641 5640 5639 5638 5637 5636 5634 5633 5632 5631 5630 5629 5628 5627 5626 5625 5625 5624 5623 5622 5621 5620 5619 5618 5617 5615 5614 5612 5610 5609 5607 5605 5603
5703 5702 5701 5700 5698 5697 5695 5695 5694 5694 5693 5692 5691 5690 5689 5688 5687 5686 5685 5683 5681 5679 5678 5676 5674 5672 5670 5669 5667 5665 5664 5662 5660 5658 5657 5655 5654 5652 5651 5649 5648 5647 5646 5645 5644 5644 5643 5642 5641 5640 5640 5639 5638 5636 5635 5634 5633 5632 5631 5629 5628 5628 5627 5626 5625 5624 5623 5623 5622 5621 5620 5619 5618 5618 5617 5616 5615 5613 5612 5611 5609 5608 5606 5604 5603
5695 5694 5693 5692 5691 5690 5688 5688 5688 5687 5687 5686 5685 5685 5683 5682 5681 5680 5678 5676 5674 5673 5671 5669 5667 5666 5664 5662 5661 5659 5658 5656 5654 5653 5651 5650 5649 5647 5645 5644 5643 5642 5641 5641 5640 5640 5639 5638 5637 5637 5636 5635 5634 5633 5632 5631 5630 5628 5627 5626 5625 5625 5624 5623 5622 5622 5621 5620 5619 5618 5617 5617 5616 5615 5615 5614 5613 5612 5610 5609 5608 5607 5605 5604 5602
5687 5686 5685 5684 5684 5684 5683 5682 5682 5682 5681 5681 5680 5679 5678 5677 5676 5674 5672 5670 5669 5667 5665 5663 5662 5660 5658 5657 5655 5654 5652 5650 5649 5648 5646 5645 5644 5642 5641 5640 5639 5638 5637 5636 5636 5635 5635 5634 5634 5633 5632 5631 5630 5629 5628 5627 5626 5625 5624 5623 5622 5622 5621 5620 5620 5619 5618 5617 5616 5616 5615 5614 5613 5613 5612 5611 5611 5610 5609 5608 5606 5606 5604 5603 5602
5681 5680 5679 5679 5679 5678 5678 5678 5677 5677 5676 5675 5674 5673 5672 5671 5670 5668 5666 5664 5663 5661 5659 5658 5656 5654 5653 5651 5650 5648 5647 5645 5644 5643 5642 5641 5639 5638 5637 5636 5635 5634 5633 5632 5631 5631 5630 5630 5629 5629 5628 5627 5626 5625 5625 5623 5622 5621 5620 5620 5619 5619 5618 5617 5617 5616 5615 5615 5614 5613 5612 5612 5611 5610 5609 5609 5608 5608 5607 5606 5605 5604 5604 5602 5601
5675 5674 5674 5674 5674 5674 5673 5672 5672 5671 5671 5670 5669 5668 5666 5665 5663 5661 5660 5658 5657 5656 5654 5652 5651 5649 5648 5646 5645 5643 5642 5641 5639 5638 5637 5636 5635 5634 5633 5631 5630 5629 5629 5628 5627 5627 5626 5625 5625 5624 5624 5623 5622 5621 5621 5620 5618 5618 5617 5616 5616 5615 5615 5614 5614 5613 5613 5612 5611 5610 5610 5609 5609 5608 5607 5607 5606 5605 5605 5604 5603 5603 5602 5601 5600
5669 5668 5669 5669 5668 5668 5667 5667 5666 5666 5665 5664 5663 5661 5660 5658 5657 5655 5654 5653 5651 5650 5648 5647 5645 5644 5642 5641 5640 5638 5637 5636 5634 5633 5632 5631 5630 5629 5628 5627 5626 5625 5624 5624 5623 5622 5621 5621 5621 5620 5619 5619 5618 5617 5617 5616 5615 5614 5613 5613 5612 5612 5611 5611 5610 5610 5610 5609 5608 5608 5607 5606 5606 5605 5605 5604 5604 5603 5603 5602 5602 5601 5601 5600 5599
5662 5662 5662 5662 5661 5661 5661 5661 5661 5660 5659 5658 5657 5655 5654 5652 5651 5650 5649 5647 5646 5645 5643 5641 5640 5639 5637 5636 5635 5633 5632 5631 5630 5629 5628 5627 5625 5624 5623 5622 5621 5621 5620 5619 5619 5618 5617 5617 5616 5616 5615 5615 5614 5613 5613 5612 5611 5610 5610 5609 5608 5608 5607 5607 5607 5607 5606 5606 5605 5605 5604 5603 5603 5603 5602 5601 5601 5601 5601 5600 5600 5600 5599 5599 5598
5656 5656 5655 5655 5655 5655 5655 5655 5654 5654 5653 5652 5650 5649 5648 5647 5646 5645 5643 5642 5641 5639 5638 5636 5635 5634 5633 5632 5630 5629 5628 5627 5626 5624 5623 5622 5620 5619 5618 5618 5617 5616 5616 5615 5615 5614 5614 5613 5613 5612 5611 5611 5610 5610 5609 5608 5607 5607 5606 5605 5605 5604 5604 5603 5603 5603 5603 5602 5602 5602 5601 5600 5600 5599 5599 5599 5598 5598 5598 5598 5598 5598 5597 5597 5597
5652 5651 5650 5650 5650 5649 5648 5648 5648 5647 5647 5646 5645 5644 5643 5642 5641 5640 5639 5637 5636 5635 5633 5632 5631 5630 5629 5627 5626 5624 5623 5622 5621 5620 5619 5617 5616 5615 5614 5614 5613 5612 5611 5611 5610 5610 5610 5610 5609 5608 5607 5607 5607 5606 5605 5605 5604 5603 5602 5602 5601 5600 5600 5599 5599 5599 5599 5598 5598 5598 5598 5597 5597 5596 5596 5596 5595 5595 5595 5595 5595 5595 5595 5595 5595
5647 5646 5645 5645 5644 5644 5644 5643 5643 5643 5642 5641 5641 5640 5639 5637 5636 5635 5634 5633 5632 5630 5629 5628 5627 5625 5624 5623 5621 5620 5619 5617 5616 5615 5614 5613 5612 5611 5610 5609 5609 5608 5607 5607 5606 5606 5606 5606 5605 5604 5604 5603 5603 5602 5602 5601 5600 5600 5599 5598 5597 5596 5596 5595 5595 5595 5595 5594 5594 5594 5594 5594 5594 5593 5593 5592 5592 5592 5592 5592 5592 5592 5592 5592 5593
5643 5642 5641 5640 5640 5640 5640 5639 5639 5638 5638 5637 5636 5635 5634 5633 5632 5631 5630 5629 5627 5626 5625 5624 5623 5621 5620 5618 5617 5616 5614 5613 5612 5611 5610 5609 5607 5606 5606 5605 5604 5604 5603 5603 5602 5602 5602 5602 5601 5601 5600 5599 5599 5599 5598 5597 5597 5596 5595 5594 5593 5592 5592 5591 5591 5591 5590 5590 5590 5590 5590 5590 5590 5590 5589 5589 5589 5589 5589 5590 5589 5589 5589 5589 5590
5638 5638 5637 5637 5636 5636 5636 5635 5634 5634 5633 5632 5632 5631 5630 5629 5628 5627 5626 5625 5624 5623 5622 5621 5619 5618 5616 5614 5613 5612 5610 5609 5608 5606 5606 5605 5604 5602 5602 5601 5601 5600 5599 5599 5599 5599 5599 5599 5598 5597 5596 5596 5595 5595 5594 5594 5593 5592 5591 5590 5589 5588 5588 5587 5587 5587 5586 5586 5586 5586 5586 5586 5586 5586 5586 5586 5586 5586 5586 5587 5587 5587 5587 5587 5587
5634 5633 5633 5632 5632 5631 5631 5630 5630 5629 5629 5628 5627 5627 5626 5625 5624 5623 5623 5622 5621 5620 5618 5617 5616 5614 5612 5611 5609 5608 5606 5605 5604 5603 5602 5602 5601 5599 5598 5598 5597 5597 5596 5596 5595 5596 5596 5595 5595 5594 5593 5592 5592 5591 5591 5590 5589 5588 5588 5587 5586 5585 5585 5584 5584 5583 5583 5582 5582 5582 5582 5582 5582 5582 5582 5582 5582 5583 5583 5583 5584 5584 5584 5584 5584